Location: Observatoire
(46.1952°N, 5.3391°E)
Time: 22:20:01
(UTC+01:00)

A-11 Canister half - Visible Passes

Search period start: 17 February 2026 00:00
Search period end: 27 February 2026 00:00
Orbit: 1525 x 1682 km, 47.3° (Epoch: 17 February)

Date Brightness Start Highest point End Pass type
(mag) Time Alt. Az. Time Alt. Az. Time Alt. Az.
17 Feb 9.1 18:27:14 10° WSW 18:36:36 84° SSE 18:45:57 10° ENE visible
17 Feb 8.9 20:32:26 10° W 20:41:47 85° N 20:44:42 51° E visible
17 Feb 9.8 22:37:31 10° WNW 22:43:00 39° W 22:43:00 39° W visible
18 Feb 8.9 20:10:35 10° W 20:19:57 85° N 20:24:07 39° E visible
18 Feb 9.5 22:15:41 10° WNW 22:22:24 50° W 22:22:24 50° W visible
19 Feb 8.9 19:48:44 10° W 19:58:06 84° N 20:03:32 29° E visible
19 Feb 9.1 21:53:51 10° WNW 22:01:49 62° WSW 22:01:49 62° WSW visible
19 Feb 11.0 23:59:30 10° W 00:00:06 12° W 00:00:06 12° W visible
20 Feb 9.0 19:26:52 10° W 19:36:15 84° N 19:42:58 22° E visible
20 Feb 8.9 21:32:01 10° WNW 21:41:13 69° SSW 21:41:15 69° SSW visible
20 Feb 10.8 23:37:34 10° W 23:39:33 16° W 23:39:33 16° W visible
21 Feb 9.0 19:05:01 10° W 19:14:24 84° N 19:22:26 15° E visible
21 Feb 8.9 21:10:11 10° WNW 21:19:25 71° SSW 21:20:43 64° SSE visible
21 Feb 10.6 23:15:40 10° WNW 23:19:00 21° W 23:19:00 21° W visible
22 Feb 9.0 18:43:09 10° W 18:52:33 84° N 19:01:54 10° E visible
22 Feb 8.9 20:48:20 10° WNW 20:57:36 73° SSW 21:00:12 52° SE visible
22 Feb 10.3 22:53:45 10° WNW 22:58:29 26° WSW 22:58:29 26° WSW visible
23 Feb 9.0 20:26:30 10° WNW 20:35:47 75° SSW 20:39:43 40° SE visible
23 Feb 10.1 22:31:52 10° WNW 22:38:01 31° WSW 22:38:01 31° WSW visible
24 Feb 9.0 20:04:39 10° WNW 20:13:58 77° SSW 20:19:17 30° ESE visible
24 Feb 9.9 22:09:58 10° WNW 22:17:35 34° SW 22:17:35 34° SW visible
25 Feb 9.0 19:42:48 10° WNW 19:52:08 79° SSW 19:58:53 21° ESE visible
25 Feb 9.8 21:48:05 10° WNW 21:56:15 36° SW 21:57:11 35° SSW visible
26 Feb 9.0 19:20:58 10° WNW 19:30:19 80° SSW 19:38:32 14° ESE visible
26 Feb 9.8 21:26:13 10° WNW 21:34:29 38° SW 21:36:51 33° SSW visible
